Weather History for YBBN - April, 2013

Change the Weather History Date:

Thursday, April 4, 2013

  Actual Average Record
Temperature  
Mean Temperature 70 °F -  
Max Temperature 77 °F 78 °F 89 °F (2006)
Min Temperature 64 °F 62 °F 59 °F (2008)
Cooling Degree Days 6    
Growing Degree Days 20 (Base 50)    
Moisture  
Dew Point 60 °F    
Average Humidity 68    
Maximum Humidity 94    
Minimum Humidity 40    
Precipitation  
Precipitation 0.98 in 0.14 in - ()
Sea Level Pressure  
Sea Level Pressure 30.16 in    
Wind  
Wind Speed 8 mph ()    
Max Wind Speed 15 mph    
Max Gust Speed 26 mph    
Visibility 7.6 miles    
Events Rain    
Averages and records for this station are not official NWS values.
T = Trace of Precipitation, MM = Missing Value Source: Averaged Metar Reports

Daily Weather History Graph

Daily Weather History Graph

Search for Another Location

Airport or City:

Trip Planner

Search our weather history database for the weather conditions in past years. The results will help you decide how hot, cold, wet, or windy it might be!

Date:

Astronomy

Apr. 04, 2013 Rise Set
Actual Time 5:58 AM AEST 5:42 PM AEST
Civil Twilight 5:35 AM AEST 6:05 PM AEST
Nautical Twilight 5:08 AM AEST 6:32 PM AEST
Astronomical Twilight 4:41 AM AEST 6:59 PM AEST
Moon No Moon Rise 1:22 PM AEST (4/4)
Length of Visible Light 12h 30m
Length of Day
11h 43m
Last Quarter, 40% of the Moon is Illuminated
Apr 4
Last Quarter
Apr 10
New
Apr 18
First Quarter
Apr 26
Full
May 2
Last Quarter

Hourly Weather History & Observations

Time (AEST) Temp. Dew Point Humidity Pressure Visibility Wind Dir Wind Speed Gust Speed Precip Events Conditions
12:00 AM 69 °F 62 °F 72% 30.12 in 16 mi South 5.8 mph - -   Mostly Cloudy
12:00 AM 69.8 °F 62.6 °F 78% 30.09 in 6.2 mi South 5.8 mph - N/A   Scattered Clouds
12:30 AM 68.0 °F 60.8 °F 78% 30.09 in 6.2 mi South 9.2 mph - N/A   Scattered Clouds
1:00 AM 69 °F 58 °F 60% 30.12 in - South 10.4 mph - -  
1:00 AM 68.0 °F 59.0 °F 73% 30.09 in 6.2 mi South 10.4 mph - N/A   Mostly Cloudy
1:30 AM 68.0 °F 59.0 °F 73% 30.09 in 6.2 mi South 6.9 mph - N/A   Mostly Cloudy
2:00 AM 68.0 °F 59.0 °F 73% 30.09 in 6.2 mi South 8.1 mph - N/A   Mostly Cloudy
2:30 AM 68.0 °F 60.8 °F 78% 30.09 in 6.2 mi South 6.9 mph - N/A   Mostly Cloudy
3:00 AM 67 °F 61 °F 74% 30.11 in 16 mi SSW 8.1 mph - -   Mostly Cloudy
3:00 AM 66.2 °F 60.8 °F 83% 30.09 in 6.2 mi SSW 8.1 mph - N/A   Scattered Clouds
3:30 AM 66.2 °F 62.6 °F 88% 30.09 in 6.2 mi SSW 8.1 mph - N/A   Scattered Clouds
4:00 AM 66 °F 62 °F 83% 30.11 in - SSW 5.8 mph - -  
4:00 AM 66.2 °F 62.6 °F 88% 30.09 in 6.2 mi SSW 5.8 mph - N/A   Mostly Cloudy
4:30 AM 68.0 °F 60.8 °F 78% 30.12 in 6.2 mi SSE 5.8 mph - N/A   Mostly Cloudy
5:00 AM 68.0 °F 62.6 °F 83% 30.12 in 6.2 mi ESE 10.4 mph - N/A Rain Light Rain Showers
5:30 AM 66.2 °F 62.6 °F 88% 30.12 in 6.2 mi SSE 5.8 mph - N/A   Partly Cloudy
6:00 AM 65 °F 61 °F 82% 30.15 in 19 mi South 8.1 mph - -   Partly Cloudy
6:00 AM 66.2 °F 60.8 °F 83% 30.12 in 6.2 mi South 8.1 mph - N/A   Partly Cloudy
6:30 AM 66.2 °F 59.0 °F 78% 30.15 in 6.2 mi South 4.6 mph - N/A   Scattered Clouds
7:00 AM 65 °F 60 °F 78% 30.17 in - South 5.8 mph - -  
7:00 AM 66.2 °F 60.8 °F 83% 30.15 in 6.2 mi South 5.8 mph - N/A   Scattered Clouds
7:30 AM 66.2 °F 60.8 °F 83% 30.18 in 6.2 mi SSW 9.2 mph - N/A   Scattered Clouds
8:00 AM 68.0 °F 62.6 °F 83% 30.18 in 6.2 mi SW 8.1 mph - N/A   Scattered Clouds
8:30 AM 69.8 °F 60.8 °F 73% 30.21 in 6.2 mi SSW 8.1 mph - N/A   Mostly Cloudy
9:00 AM 71 °F 60 °F 60% 30.22 in 16 mi SSE 8.1 mph - -   Partly Cloudy
9:00 AM 71.6 °F 60.8 °F 69% 30.21 in 6.2 mi SSE 8.1 mph - N/A   Mostly Cloudy
9:30 AM 73.4 °F 60.8 °F 65% 30.18 in 6.2 mi South 10.4 mph - N/A   Scattered Clouds
10:00 AM 74 °F 59 °F 50% 30.20 in - SSE 9.2 mph - -  
10:00 AM 75.2 °F 59.0 °F 57% 30.18 in 6.2 mi SSE 9.2 mph - N/A   Partly Cloudy
10:30 AM 75.2 °F 57.2 °F 53% 30.18 in 6.2 mi SE 11.5 mph - N/A   Scattered Clouds
11:00 AM 75.2 °F 57.2 °F 53% 30.18 in 6.2 mi SE 11.5 mph - N/A   Scattered Clouds
11:30 AM 75.2 °F 57.2 °F 53% 30.15 in 6.2 mi SSE 10.4 mph - N/A   Scattered Clouds
12:00 PM 77 °F 57 °F 40% 30.17 in 19 mi ESE 12.7 mph - -   Mostly Cloudy
12:00 PM 77.0 °F 57.2 °F 50% 30.15 in 6.2 mi ESE 12.7 mph - N/A   Mostly Cloudy
12:30 PM 77.0 °F 60.8 °F 57% 30.15 in 6.2 mi ESE 15.0 mph - N/A   Scattered Clouds
1:00 PM 75 °F 58 °F 46% 30.16 in - SSE 13.8 mph - -  
1:00 PM 75.2 °F 59.0 °F 57% 30.15 in 6.2 mi SSE 13.8 mph - N/A   Mostly Cloudy
1:30 PM 75.2 °F 60.8 °F 61% 30.15 in 6.2 mi SE 13.8 mph 26.5 mph N/A   Mostly Cloudy
2:00 PM 75.2 °F 59.0 °F 57% 30.15 in 6.2 mi SE 13.8 mph - N/A   Mostly Cloudy
2:30 PM 75.2 °F 59.0 °F 57% 30.15 in 6.2 mi SE 13.8 mph 25.3 mph N/A   Scattered Clouds
3:00 PM 76 °F 58 °F 44% 30.16 in 16 mi SE 11.5 mph - -   Partly Cloudy
3:00 PM 75.2 °F 59.0 °F 57% 30.15 in 6.2 mi SE 11.5 mph - N/A   Scattered Clouds
3:30 PM 75.2 °F 57.2 °F 53% 30.15 in 6.2 mi SSE 12.7 mph - N/A   Partly Cloudy
4:00 PM 74 °F 57 °F 45% 30.16 in - SE 10.4 mph - -  
4:00 PM 75.2 °F 57.2 °F 53% 30.15 in 6.2 mi SE 10.4 mph - N/A   Partly Cloudy
4:30 PM 75.2 °F 57.2 °F 53% 30.15 in 6.2 mi SE 11.5 mph - N/A   Scattered Clouds
5:00 PM 75.2 °F 57.2 °F 53% 30.15 in 6.2 mi SSE 9.2 mph - N/A   Mostly Cloudy
5:30 PM 73.4 °F 57.2 °F 57% 30.15 in 6.2 mi South 10.4 mph - N/A   Scattered Clouds
6:00 PM 73 °F 59 °F 53% 30.19 in 19 mi SSE 9.2 mph - -   Partly Cloudy
6:00 PM 73.4 °F 59.0 °F 61% 30.18 in 6.2 mi SSE 9.2 mph 20.7 mph N/A   Scattered Clouds
6:30 PM 71.6 °F 57.2 °F 60% 30.18 in 6.2 mi SSE 10.4 mph - N/A   Partly Cloudy
7:00 PM 71 °F 58 °F 55% 30.20 in - SSE 9.2 mph - -  
7:00 PM 71.6 °F 59.0 °F 64% 30.18 in 6.2 mi SSE 9.2 mph - N/A   Partly Cloudy
7:30 PM 69.8 °F 59.0 °F 68% 30.21 in 6.2 mi South 9.2 mph - N/A   Partly Cloudy
8:00 PM 69.8 °F 59.0 °F 68% 30.21 in 6.2 mi South 10.4 mph - N/A   Partly Cloudy
8:30 PM 69.8 °F 59.0 °F 68% 30.21 in 6.2 mi South 10.4 mph - N/A   Scattered Clouds
9:00 PM 69 °F 60 °F 65% 30.22 in 19 mi South 11.5 mph - -   Partly Cloudy
9:00 PM 69.8 °F 59.0 °F 68% 30.21 in 6.2 mi South 11.5 mph - N/A   Scattered Clouds
9:30 PM 69.8 °F 60.8 °F 73% 30.21 in 6.2 mi South 10.4 mph - N/A   Scattered Clouds
10:00 PM 67 °F 62 °F 79% 30.23 in - South 10.4 mph - -  
10:00 PM 68.0 °F 62.6 °F 83% 30.21 in 6.2 mi South 10.4 mph - N/A   Scattered Clouds
10:30 PM 68.0 °F 62.6 °F 83% 30.21 in 6.2 mi South 12.7 mph - N/A   Scattered Clouds
11:00 PM 68.0 °F 62.6 °F 83% 30.21 in 5.6 mi South 11.5 mph - N/A Rain Light Rain Showers
11:14 PM 66.2 °F 64.4 °F 94% 30.21 in 3.1 mi South 11.5 mph - N/A Rain Rain Showers
11:30 PM 66.2 °F 64.4 °F 94% 30.21 in 3.7 mi South 10.4 mph - N/A Rain Rain Showers
11:50 PM 66.2 °F 64.4 °F 94% 30.21 in 5.6 mi South 12.7 mph - N/A Rain Light Rain Showers